Change the Weather History Date:

Monday, December 31, 2012

  Actual Average Record
Temperature  
Mean Temperature 16 °F -  
Max Temperature 20 °F - - ()
Min Temperature 11 °F - - ()
Degree Days  
Heating Degree Days 50    
Moisture  
Dew Point 10 °F    
Average Humidity 75    
Maximum Humidity 78    
Minimum Humidity 71    
Precipitation  
Precipitation 0.00 in - - ()
Sea Level Pressure  
Sea Level Pressure 30.27 in    
Wind  
Wind Speed 5 mph ()    
Max Wind Speed 8 mph    
Max Gust Speed 18 mph    
T = Trace of Precipitation, MM = Missing Value Source: Averaged Metar Reports

Daily Weather History Graph

Daily Weather History Graph

Search for Another Location

Airport or City:

Trip Planner

Search our weather history database for the weather conditions in past years. The results will help you decide how hot, cold, wet, or windy it might be!

Date:

Astronomy

Dec. 31, 2012 Rise Set
Actual Time 8:46 AM MST 4:44 PM MST
Civil Twilight 8:06 AM MST 5:24 PM MST
Nautical Twilight 7:24 AM MST 6:07 PM MST
Astronomical Twilight 6:43 AM MST 6:47 PM MST
Moon 8:46 PM MST (12/31) 10:06 AM MST (12/31)
Length of Visible Light 9h 17m
Length of Day
7h 58m
Waning Gibbous, 90% of the Moon is Illuminated
Dec 31
Waning Gibbous
Jan 4
Last Quarter
Jan 11
New
Jan 18
First Quarter
Jan 26
Full

Hourly Weather History & Observations

Time (MST) Temp. Windchill Dew Point Humidity Pressure Visibility Wind Dir Wind Speed Gust Speed Precip Events Conditions
12:00 AM 11.8 °F 2.5 °F 5.4 °F 75% 30.27 in - West 5.8 mph - N/A   Unknown
1:00 AM 12.0 °F 2.7 °F 5.9 °F 76% 30.25 in - West 5.8 mph 18.4 mph N/A   Unknown
2:00 AM 13.3 °F 3.0 °F 6.6 °F 75% 30.24 in - WSW 6.9 mph - N/A   Unknown
3:00 AM 12.6 °F 2.2 °F 6.4 °F 77% 30.26 in - West 6.9 mph - N/A   Unknown
4:00 AM 12.6 °F 4.8 °F 6.8 °F 78% 30.26 in - West 4.6 mph - N/A   Unknown
5:00 AM 13.5 °F 4.4 °F 7.5 °F 77% 30.26 in - WSW 5.8 mph - N/A   Unknown
6:00 AM 14.7 °F 4.8 °F 8.4 °F 76% 30.25 in - WSW 6.9 mph - N/A   Unknown
8:00 AM 15.8 °F 6.1 °F 9.1 °F 75% 30.25 in - West 6.9 mph - N/A   Unknown
9:00 AM 15.6 °F 7.0 °F 9.1 °F 76% 30.26 in - West 5.8 mph - N/A   Unknown
10:00 AM 15.6 °F 7.0 °F 9.0 °F 75% 30.27 in - West 5.8 mph - N/A   Unknown
11:00 AM 17.4 °F 10.4 °F 9.9 °F 72% 30.27 in - WSW 4.6 mph - N/A   Unknown
12:00 PM 18.3 °F 10.2 °F 10.4 °F 71% 30.27 in - WSW 5.8 mph - N/A   Unknown
1:00 PM 19.2 °F 10.2 °F 11.1 °F 71% 30.26 in - WSW 6.9 mph - N/A   Unknown
2:00 PM 19.8 °F 10.8 °F 11.7 °F 71% 30.26 in - WSW 6.9 mph - N/A   Unknown
3:00 PM 20.3 °F 12.5 °F 12.7 °F 73% 30.27 in - WSW 5.8 mph - N/A   Unknown
4:00 PM 20.5 °F 14.0 °F 12.7 °F 72% 30.27 in - WSW 4.6 mph - N/A   Unknown
5:00 PM 20.1 °F 11.3 °F 12.9 °F 74% 30.28 in - WSW 6.9 mph - N/A   Unknown
7:00 PM 19.4 °F 10.4 °F 12.4 °F 74% 30.29 in - WSW 6.9 mph 18.4 mph N/A   Unknown
8:00 PM 18.1 °F 10.0 °F 12.0 °F 77% 30.30 in - WSW 5.8 mph - N/A   Unknown
9:00 PM 17.4 °F 7.1 °F 10.8 °F 75% 30.30 in - WSW 8.1 mph - N/A   Unknown
10:00 PM 16.2 °F 10.6 °F 10.4 °F 78% 30.31 in - WSW 3.5 mph - N/A   Unknown
11:00 PM 15.8 °F 5.1 °F 10.0 °F 78% 30.31 in - West 8.1 mph 18.4 mph N/A   Unknown